Location: Izdebno
(52.6670°N, 16.2170°E)
Time: 10:51:38
(UTC+01:00)

Explorer 11/Cluster Stage 4 - Visible Passes

Search period start: 28 January 2023 00:00
Search period end: 07 February 2023 00:00
Orbit: 466 x 1244 km, 28.8° (Epoch: 27 January)

Date Brightness Start Highest point End Pass type
(mag) Time Alt. Az. Time Alt. Az. Time Alt. Az.
03 Feb 9.9 05:56:39 10° S 05:56:54 10° S 05:57:09 10° S visible
04 Feb 9.7 05:42:02 10° S 05:43:15 10° S 05:44:28 10° SSE visible
05 Feb 9.7 05:28:07 10° S 05:29:35 11° S 05:31:04 10° SSE visible
06 Feb 9.6 05:14:25 10° S 05:15:54 11° S 05:17:24 10° SSE visible
